Date String (YYYY-MM-DD hh:mm:ss) UTC,Instrument flags,Ambient pressure (hPa),Sample flow (lpm),Bypass flow (lpm),Sample temperature (°C),Ambient temperature (°C),ASC tube jacket temperature (°C),LED temperature (°C),Box temperature (°C),Sample RH (%),Span deviation,Mass concentration (μg/m³),Mass concentration (μg/m³),Mass concentration (μg/m³)
DateTimeUTC,F1_M11,P_M11,Q1_M11,Q2_M11,T1_M11,T2_M11,T3_M11,T4_M11,T5_M11,U1_M11,ZSPAN_M11,X0_M11,X2_M11,X1_M11
2022-11-29 09:00:00,,0812.9,5.00,0.00,22.3,20.5,00.0,31.4,24.0,12.1,0000.0,0001.98,0001.59,0001.38
2022-11-29 09:01:00,,0812.9,5.00,0.00,22.3,20.5,00.0,31.4,24.0,12.1,0000.0,0002.01,0001.61,0001.39
2022-11-29 09:02:00,,0812.9,5.00,0.00,22.3,20.4,00.0,31.3,24.0,12.1,0000.0,0002.10,0001.62,0001.41
2022-11-29 09:03:00,,0812.9,5.00,0.00,22.2,20.3,00.0,31.3,23.9,12.2,0000.0,0002.26,0001.65,0001.44
2022-11-29 09:04:00,,0812.8,5.00,0.00,22.2,20.3,00.0,31.3,23.9,12.2,0000.0,0002.32,0001.68,0001.47
2022-11-29 09:05:00,,0812.7,5.00,0.00,22.2,20.7,00.0,31.2,24.0,12.2,0000.0,0002.45,0001.74,0001.48
2022-11-29 09:06:00,,0812.7,5.00,0.00,22.3,21.7,00.0,31.2,24.2,12.1,0000.0,0002.63,0001.78,0001.48
2022-11-29 09:07:00,,0812.7,5.00,0.00,22.4,22.2,00.0,31.2,24.3,12.0,0000.0,0002.81,0001.81,0001.46
2022-11-29 09:08:00,,0812.7,5.00,0.00,22.4,21.9,00.0,31.2,24.3,12.0,0000.0,0002.90,0001.82,0001.44
2022-11-29 09:09:00,,0812.7,5.00,0.00,22.4,21.6,00.0,31.3,24.3,12.0,0000.0,0003.01,0001.86,0001.42
2022-11-29 09:10:00,,0812.7,5.00,0.00,22.4,21.4,00.0,31.3,24.2,12.0,0000.0,0003.00,0001.84,0001.40
2022-11-29 09:11:00,,0812.7,5.00,0.00,22.4,21.3,00.0,31.3,24.2,12.0,0000.0,0002.95,0001.82,0001.36
2022-11-29 09:12:00,,0812.7,4.99,0.00,22.3,21.1,00.0,31.3,24.1,12.0,0000.0,0002.95,0001.81,0001.33
2022-11-29 09:13:00,,0812.7,5.00,0.00,22.3,21.0,00.0,31.3,24.1,12.0,0000.0,0002.81,0001.76,0001.30
2022-11-29 09:14:00,,0812.8,5.02,0.00,22.3,20.9,00.0,31.3,24.1,12.0,0000.0,0002.62,0001.70,0001.25
2022-11-29 09:15:00,,0812.8,5.00,0.00,22.3,20.8,00.0,31.3,24.1,12.0,0000.0,0002.71,0001.69,0001.20
2022-11-29 09:16:00,,0812.7,5.00,0.00,22.3,20.8,00.0,31.3,24.0,12.0,0000.0,0002.65,0001.64,0001.18
2022-11-29 09:17:00,,0812.7,5.00,0.00,22.3,20.7,00.0,31.3,24.0,12.0,0000.0,0002.40,0001.56,0001.14
2022-11-29 09:18:00,,0812.7,4.99,0.00,22.2,20.7,00.0,31.2,24.0,12.0,0000.0,0002.31,0001.53,0001.12
2022-11-29 09:19:00,,0812.7,5.00,0.00,22.2,20.7,00.0,31.2,24.0,12.0,0000.0,0002.28,0001.53,0001.10
2022-11-29 09:20:00,,0812.8,5.02,0.00,22.3,21.5,00.0,31.2,24.1,12.0,0000.0,0002.20,0001.47,0001.07
2022-11-29 09:21:00,,0813.0,4.99,0.00,22.4,22.2,00.0,31.1,24.3,11.9,0000.0,0002.13,0001.42,0001.04
2022-11-29 09:22:00,,0812.9,5.00,0.00,22.4,22.1,00.0,31.2,24.4,11.9,0000.0,0002.44,0001.37,0001.03
2022-11-29 09:23:00,,0813.1,5.01,0.00,22.4,21.8,00.0,31.2,24.3,11.9,0000.0,0002.91,0001.34,0001.01
2022-11-29 09:24:00,,0813.1,5.00,0.00,22.4,21.4,00.0,31.3,24.2,11.9,0000.0,0002.91,0001.33,0001.02
2022-11-29 09:25:00,,0813.3,4.99,0.00,22.3,21.1,00.0,31.3,24.1,12.0,0000.0,0003.00,0001.37,0001.02
2022-11-29 09:26:00,,0813.3,5.00,0.00,22.3,20.8,00.0,31.3,24.1,12.0,0000.0,0002.92,0001.37,0001.03
2022-11-29 09:27:00,,0813.4,4.99,0.00,22.3,20.6,00.0,31.3,24.0,12.0,0000.0,0002.95,0001.39,0001.03
2022-11-29 09:28:00,,0813.4,5.01,0.00,22.2,20.4,00.0,31.3,23.9,12.1,0000.0,0002.96,0001.40,0001.05
2022-11-29 09:29:00,,0813.4,5.01,0.00,22.2,20.3,00.0,31.2,23.9,12.1,0000.0,0002.99,0001.44,0001.07
2022-11-29 09:30:00,,0813.4,5.01,0.00,22.1,20.2,00.0,31.2,23.8,12.1,0000.0,0003.00,0001.43,0001.08
2022-11-29 09:31:00,,0813.5,5.00,0.00,22.1,20.1,00.0,31.2,23.8,12.1,0000.0,0003.55,0001.47,0001.09
2022-11-29 09:32:00,,0813.5,5.00,0.00,22.1,20.0,00.0,31.2,23.7,12.1,0000.0,0004.07,0001.51,0001.10
2022-11-29 09:33:00,,0813.6,5.00,0.00,22.0,19.9,00.0,31.2,23.7,12.1,0000.0,0003.73,0001.55,0001.10
2022-11-29 09:34:00,,0813.6,4.99,0.00,22.0,20.1,00.0,31.1,23.7,12.1,0000.0,0003.41,0001.58,0001.11
2022-11-29 09:35:00,,0813.8,5.00,0.00,22.1,21.2,00.0,31.0,23.9,12.1,0000.0,0004.11,0001.59,0001.10
2022-11-29 09:36:00,,0814.2,4.98,0.00,22.2,22.0,00.0,31.0,24.1,12.0,0000.0,0004.64,0001.54,0001.09
2022-11-29 09:37:00,,0813.5,5.00,0.00,22.2,21.8,00.0,31.1,24.1,12.0,0000.0,0004.55,0001.50,0001.08
2022-11-29 09:38:00,,0813.5,5.00,0.00,22.2,21.4,00.0,31.1,24.1,12.0,0000.0,0004.48,0001.48,0001.08
2022-11-29 09:39:00,,0813.5,5.00,0.00,22.2,21.2,00.0,31.1,24.0,12.0,0000.0,0004.47,0001.47,0001.08
2022-11-29 09:40:00,,0813.5,5.00,0.00,22.2,21.0,00.0,31.1,24.0,12.0,0000.0,0005.00,0001.45,0001.07
2022-11-29 09:41:00,,0813.5,5.00,0.00,22.1,20.8,00.0,31.1,23.9,12.0,0000.0,0004.98,0001.42,0001.05
2022-11-29 09:42:00,,0813.5,5.00,0.00,22.1,20.7,00.0,31.1,23.9,12.0,0000.0,0004.51,0001.39,0001.05
2022-11-29 09:43:00,,0813.6,5.00,0.00,22.1,20.6,00.0,31.1,23.9,12.0,0000.0,0003.94,0001.37,0001.05
2022-11-29 09:44:00,,0813.6,5.01,0.00,22.1,20.5,00.0,31.1,23.9,12.0,0000.0,0003.88,0001.34,0001.05
2022-11-29 09:45:00,,0813.7,5.01,0.00,22.1,20.4,00.0,31.1,23.8,12.0,0000.0,0003.79,0001.34,0001.06
2022-11-29 09:46:00,,0814.1,5.00,0.00,22.0,20.4,00.0,31.1,23.8,12.0,0000.0,0003.13,0001.33,0001.07
2022-11-29 09:47:00,,0814.2,4.99,0.00,22.0,20.4,00.0,31.1,23.8,12.0,0000.0,0002.50,0001.34,0001.08
2022-11-29 09:48:00,,0814.2,5.00,0.00,22.0,20.7,00.0,31.0,23.8,12.0,0000.0,0003.03,0001.36,0001.08
2022-11-29 09:49:00,,0814.1,5.01,0.00,22.1,21.6,00.0,31.0,24.0,12.0,0000.0,0003.66,0001.37,0001.07
2022-11-29 09:50:00,,0814.1,5.00,0.00,22.2,22.2,00.0,31.0,24.2,11.9,0000.0,0004.68,0001.36,0001.06
2022-11-29 09:51:00,,0813.7,4.99,0.00,22.2,22.0,00.0,31.0,24.2,11.9,0000.0,0004.78,0001.33,0001.04
2022-11-29 09:52:00,,0813.6,5.01,0.00,22.2,21.7,00.0,31.1,24.1,11.9,0000.0,0004.65,0001.32,0001.04
2022-11-29 09:53:00,,0813.5,5.01,0.00,22.2,21.4,00.0,31.1,24.1,11.9,0000.0,0004.78,0001.32,0001.04
2022-11-29 09:54:00,,0813.5,5.00,0.00,22.2,21.2,00.0,31.1,24.1,11.9,0000.0,0004.80,0001.31,0001.02
2022-11-29 09:55:00,,0813.5,4.99,0.00,22.2,21.1,00.0,31.1,24.1,11.9,0000.0,0004.78,0001.31,0001.02
2022-11-29 09:56:00,,0813.4,4.99,0.00,22.2,21.0,00.0,31.1,24.0,11.9,0000.0,0004.84,0001.32,0001.01
2022-11-29 09:57:00,,0813.3,5.00,0.00,22.2,20.9,00.0,31.1,24.0,11.9,0000.0,0004.78,0001.31,0001.01
2022-11-29 09:58:00,,0813.3,5.01,0.00,22.2,20.8,00.0,31.1,23.9,11.9,0000.0,0004.80,0001.30,0001.00
2022-11-29 09:59:00,,0813.4,5.01,0.00,22.1,20.8,00.0,31.1,23.9,11.9,0000.0,0004.49,0001.29,0000.99
